| time (UTC) | temp F | wind direction | speed knots | gust knots | rain 1hr in | rain 24hr in | rain mn in | humidity % | barometer mb |
| 20260506184628 | 71 | 355 | 4.3 | 11.3 | 0.00 | 0.00 | 0.01 | 75 | 1010.5 |
| 20260506183627 | 71 | 348 | 3.5 | 9.6 | 0.00 | 0.00 | 0.01 | 75 | 1010.6 |
| 20260506182628 | 71 | 9 | 6.1 | 9.6 | 0.00 | 0.00 | 0.01 | 76 | 1010.5 |
| 20260506180627 | 70 | 329 | 7.0 | 7.8 | 0.00 | 0.00 | 0.01 | 78 | 1010.5 |
| 20260506175627 | 69 | 17 | 6.1 | 7.8 | 0.00 | 0.00 | 0.01 | 77 | 1010.2 |
| 20260506173628 | 67 | 5 | 4.3 | 8.7 | 0.00 | 0.00 | 0.01 | 80 | 1010.1 |
| 20260506172628 | 66 | 67 | 0.9 | 8.7 | 0.00 | 0.00 | 0.01 | 81 | 1010.3 |
| 20260506171628 | 64 | 47 | 3.5 | 8.7 | 0.00 | 0.00 | 0.01 | 82 | 1010.3 |
| 20260506170627 | 64 | 13 | 2.6 | 9.6 | 0.00 | 0.00 | 0.01 | 84 | 1010.5 |
| 20260506164627 | 62 | 27 | 4.3 | 7.8 | 0.00 | 0.00 | 0.01 | 86 | 1010.9 |
| 20260506163627 | 62 | 14 | 4.3 | 12.2 | 0.00 | 0.00 | 0.01 | 87 | 1011.1 |
| 20260506162627 | 61 | 36 | 4.3 | 9.6 | 0.00 | 0.00 | 0.01 | 87 | 1010.9 |
| 20260506161627 | 61 | 355 | 7.0 | 11.3 | 0.00 | 0.00 | 0.01 | 87 | 1011.6 |
| 20260506160627 | 61 | 355 | 9.6 | 16.5 | 0.00 | 0.00 | 0.01 | 87 | 1012.2 |
| 20260506155627 | 62 | 336 | 4.3 | 13.0 | 0.00 | 0.00 | 0.01 | 87 | 1011.9 |
| 20260506154627 | 62 | 318 | 7.0 | 13.9 | 0.00 | 0.00 | 0.01 | 86 | 1012.3 |
| 20260506153627 | 64 | 324 | 5.2 | 17.4 | 0.00 | 0.00 | 0.01 | 85 | 1012.0 |
| 20260506152627 | 65 | 323 | 7.0 | 13.9 | 0.00 | 0.00 | 0.00 | 85 | 1011.6 |
| 20260506151627 | 65 | 344 | 5.2 | 9.6 | 0.00 | 0.00 | 0.00 | 85 | 1010.7 |
| 20260506150627 | 65 | 5 | 4.3 | 13.9 | 0.00 | 0.00 | 0.00 | 84 | 1010.7 |
| 20260506145627 | 66 | 13 | 7.8 | 14.8 | 0.00 | 0.00 | 0.00 | 83 | 1010.2 |
| 20260506144627 | 68 | 339 | 5.2 | 13.0 | 0.00 | 0.00 | 0.00 | 82 | 1009.7 |
| 20260506143627 | 71 | 351 | 4.3 | 13.9 | 0.00 | 0.00 | 0.00 | 78 | 1009.6 |
| 20260506142627 | 78 | 348 | 3.5 | 5.2 | 0.00 | 0.00 | 0.00 | 82 | 1008.8 |
| 20260506141627 | 78 | 135 | 2.6 | 6.1 | 0.00 | 0.00 | 0.00 | 82 | 1008.4 |
| 20260506140627 | 78 | 106 | 1.7 | 5.2 | 0.00 | 0.00 | 0.00 | 83 | 1008.5 |
| 20260506135627 | 78 | 136 | 1.7 | 7.0 | 0.00 | 0.00 | 0.00 | 85 | 1008.7 |
| 20260506133627 | 77 | 162 | 3.5 | 7.8 | 0.00 | 0.00 | 0.00 | 85 | 1008.1 |
| 20260506132627 | 76 | 114 | 3.5 | 7.0 | 0.00 | 0.00 | 0.00 | 86 | 1008.0 |
| 20260506131627 | 76 | 178 | 3.5 | 7.0 | 0.00 | 0.00 | 0.00 | 87 | 1007.8 |
| 20260506130626 | 76 | 133 | 2.6 | 7.8 | 0.00 | 0.00 | 0.00 | 87 | 1007.8 |
| 20260506125627 | 75 | 171 | 0.9 | 4.3 | 0.00 | 0.00 | 0.00 | 87 | 1007.8 |
| 20260506124627 | 75 | 150 | 0.9 | 4.3 | 0.00 | 0.00 | 0.00 | 87 | 1007.6 |
| 20260506123627 | 75 | 140 | 0.9 | 5.2 | 0.00 | 0.00 | 0.00 | 87 | 1007.6 |
| 20260506122627 | 75 | 126 | 1.7 | 2.6 | 0.00 | 0.00 | 0.00 | 87 | 1007.5 |
| 20260506120627 | 75 | 128 | 2.6 | 2.6 | 0.00 | 0.00 | 0.00 | 86 | 1007.5 |
| 20260506115627 | 75 | 161 | 0.9 | 3.5 | 0.00 | 0.00 | 0.00 | 86 | 1007.4 |
| 20260506114626 | 75 | 155 | 0.9 | 5.2 | 0.00 | 0.00 | 0.00 | 86 | 1007.3 |
| 20260506113627 | 75 | 144 | 1.7 | 3.5 | 0.00 | 0.00 | 0.00 | 86 | 1007.4 |
| 20260506112627 | 75 | 140 | 2.6 | 3.5 | 0.00 | 0.00 | 0.00 | 86 | 1007.5 |
| 20260506111626 | 76 | 173 | 1.7 | 3.5 | 0.00 | 0.00 | 0.00 | 85 | 1007.4 |
| 20260506110626 | 76 | 157 | 2.6 | 3.5 | 0.00 | 0.00 | 0.00 | 85 | 1007.4 |
| 20260506105627 | 76 | 165 | 1.7 | 5.2 | 0.00 | 0.00 | 0.00 | 85 | 1007.4 |
| 20260506104626 | 76 | 360 | 2.6 | 7.0 | 0.00 | 0.00 | 0.00 | 85 | 1007.3 |
| 20260506103626 | 76 | 158 | 2.6 | 7.0 | 0.00 | 0.00 | 0.00 | 85 | 1007.2 |
| 20260506101627 | 76 | 167 | 4.3 | 7.0 | 0.00 | 0.00 | 0.00 | 85 | 1007.0 |
| 20260506100627 | 76 | 181 | 2.6 | 7.0 | 0.00 | 0.00 | 0.00 | 85 | 1006.9 |
| 20260506095626 | 76 | 171 | 3.5 | 7.0 | 0.00 | 0.00 | 0.00 | 85 | 1007.0 |
| 20260506094626 | 76 | 192 | 2.6 | 6.1 | 0.00 | 0.00 | 0.00 | 85 | 1006.8 |
| 20260506093627 | 76 | 153 | 2.6 | 8.7 | 0.00 | 0.00 | 0.00 | 84 | 1006.7 |
| 20260506092627 | 76 | 182 | 1.7 | 7.0 | 0.00 | 0.00 | 0.00 | 84 | 1006.6 |
| 20260506091627 | 76 | 160 | 1.7 | 7.8 | 0.00 | 0.00 | 0.00 | 84 | 1006.5 |
| 20260506090626 | 76 | 214 | 2.6 | 7.8 | 0.00 | 0.00 | 0.00 | 84 | 1006.4 |
| 20260506085626 | 76 | 173 | 7.0 | 7.0 | 0.00 | 0.00 | 0.00 | 84 | 1006.4 |
| 20260506084626 | 76 | 139 | 1.7 | 7.0 | 0.00 | 0.00 | 0.00 | 84 | 1006.6 |
| 20260506083627 | 76 | 190 | 3.5 | 8.7 | 0.00 | 0.00 | 0.00 | 84 | 1006.5 |
| 20260506082627 | 76 | 155 | 3.5 | 9.6 | 0.00 | 0.00 | 0.00 | 84 | 1006.4 |
| 20260506081626 | 76 | 197 | 4.3 | 9.6 | 0.00 | 0.00 | 0.00 | 84 | 1006.2 |
| 20260506080626 | 76 | 194 | 5.2 | 12.2 | 0.00 | 0.00 | 0.00 | 84 | 1006.2 |
| 20260506071628 | 76 | 160 | 4.3 | 12.2 | 0.00 | 0.00 | 0.00 | 85 | 1006.5 |
| 20260506070628 | 76 | 185 | 7.0 | 11.3 | 0.00 | 0.00 | 0.00 | 84 | 1006.5 |
| 20260506061627 | 76 | 195 | 7.0 | 13.9 | 0.00 | 0.00 | 0.00 | 84 | 1006.4 |
| 20260506060627 | 76 | 167 | 7.8 | 11.3 | 0.00 | 0.00 | 0.00 | 84 | 1006.3 |
| 20260506050626 | 76 | 187 | 7.0 | 11.3 | 0.00 | 0.00 | 0.00 | 84 | 1006.6 |
| 20260506043627 | 77 | 169 | 6.1 | 12.2 | 0.00 | 0.00 | 0.00 | 83 | 1006.6 |
| 20260506042628 | 77 | 124 | 2.6 | 9.6 | 0.00 | 0.00 | 0.00 | 83 | 1006.5 |
| 20260506041628 | 77 | 144 | 3.5 | 10.4 | 0.00 | 0.00 | 0.00 | 83 | 1006.4 |
| 20260506040627 | 77 | 144 | 1.7 | 9.6 | 0.00 | 0.00 | 0.00 | 83 | 1006.4 |
| 20260506035627 | 77 | 117 | 5.2 | 9.6 | 0.00 | 0.00 | 0.00 | 83 | 1006.3 |
| 20260506034627 | 77 | 136 | 2.6 | 7.8 | 0.00 | 0.00 | 0.00 | 83 | 1006.0 |
| 20260506033626 | 77 | 187 | 4.3 | 7.8 | 0.00 | 0.00 | 0.00 | 83 | 1005.9 |
| 20260506032628 | 77 | 147 | 7.0 | 8.7 | 0.00 | 0.00 | 0.00 | 82 | 1005.8 |
| 20260506031627 | 78 | 161 | 5.2 | 8.7 | 0.00 | 0.00 | 0.00 | 82 | 1005.6 |
| 20260506030627 | 78 | 160 | 6.1 | 8.7 | 0.00 | 0.00 | 0.00 | 81 | 1005.6 |
| 20260506025627 | 78 | 206 | 5.2 | 8.7 | 0.00 | 0.00 | 0.00 | 81 | 1005.5 |
| 20260506024627 | 78 | 136 | 7.8 | 10.4 | 0.00 | 0.00 | 0.00 | 80 | 1005.4 |
| 20260506023627 | 79 | 144 | 2.6 | 7.8 | 0.00 | 0.00 | 0.00 | 80 | 1005.2 |
| 20260506022628 | 79 | 119 | 3.5 | 8.7 | 0.00 | 0.00 | 0.00 | 79 | 1004.9 |
| 20260506020626 | 79 | 133 | 1.7 | 7.0 | 0.00 | 0.00 | 0.00 | 78 | 1004.7 |
| 20260506015626 | 79 | 126 | 2.6 | 4.3 | 0.00 | 0.00 | 0.00 | 78 | 1004.4 |
| 20260506014626 | 80 | 139 | 2.6 | 3.5 | 0.00 | 0.00 | 0.00 | 77 | 1004.4 |
| 20260506013627 | 80 | 148 | 1.7 | 6.1 | 0.00 | 0.00 | 0.00 | 76 | 1004.5 |
| 20260506012626 | 80 | 138 | 1.7 | 7.8 | 0.00 | 0.00 | 0.00 | 75 | 1004.4 |
| 20260506010626 | 81 | 146 | 2.6 | 6.1 | 0.00 | 0.00 | 0.00 | 74 | 1004.4 |
| 20260506004626 | 82 | 157 | 2.6 | 7.0 | 0.00 | 0.00 | 0.00 | 73 | 1004.4 |
| 20260506003626 | 82 | 167 | 4.3 | 7.0 | 0.00 | 0.00 | 0.00 | 72 | 1004.4 |
| 20260506002626 | 82 | 144 | 2.6 | 6.1 | 0.00 | 0.00 | 0.00 | 72 | 1004.3 |
| 20260506001626 | 82 | 167 | 7.0 | 7.8 | 0.00 | 0.00 | 0.00 | 72 | 1004.3 |
| 20260505235626 | 83 | 174 | 1.7 | 7.8 | 0.00 | 0.00 | 0.00 | 72 | 1004.4 |
| 20260505234626 | 83 | 161 | 1.7 | 7.8 | 0.00 | 0.00 | 0.00 | 72 | 1004.2 |
| 20260505232626 | 83 | 133 | 7.0 | 12.2 | 0.00 | 0.00 | 0.00 | 70 | 1004.0 |
| 20260505231626 | 83 | 180 | 2.6 | 7.8 | 0.00 | 0.00 | 0.00 | 71 | 1003.7 |
| 20260505230626 | 83 | 161 | 4.3 | 10.4 | 0.00 | 0.00 | 0.00 | 71 | 1003.8 |
| 20260505225626 | 84 | 153 | 4.3 | 13.0 | 0.00 | 0.00 | 0.00 | 70 | 1003.7 |
| 20260505224626 | 84 | 182 | 3.5 | 11.3 | 0.00 | 0.00 | 0.00 | 70 | 1003.7 |
| 20260505223626 | 84 | 160 | 4.3 | 11.3 | 0.00 | 0.00 | 0.00 | 70 | 1003.8 |
| 20260505222626 | 84 | 163 | 6.1 | 10.4 | 0.00 | 0.00 | 0.00 | 70 | 1003.6 |
| 20260505221626 | 84 | 127 | 4.3 | 13.0 | 0.00 | 0.00 | 0.00 | 70 | 1003.6 |
| 20260505220626 | 84 | 209 | 5.2 | 12.2 | 0.00 | 0.00 | 0.00 | 68 | 1003.7 |
| 20260505214627 | 84 | 159 | 7.0 | 11.3 | 0.00 | 0.00 | 0.00 | 68 | 1004.2 |
| 20260505213626 | 84 | 143 | 7.0 | 12.2 | 0.00 | 0.00 | 0.00 | 68 | 1004.2 |
| 20260505212627 | 84 | 169 | 11.3 | 13.0 | 0.00 | 0.00 | 0.00 | 68 | 1004.2 |
| 20260505211627 | 84 | 169 | 14.8 | 16.5 | 0.00 | 0.00 | 0.00 | 68 | 1004.5 |
| 20260505210626 | 84 | 122 | 4.3 | 13.9 | 0.00 | 0.00 | 0.00 | 68 | 1004.5 |
| 20260505202627 | 83 | 177 | 8.7 | 14.8 | 0.00 | 0.00 | 0.00 | 69 | 1004.9 |
| 20260505201627 | 83 | 191 | 7.0 | 13.0 | 0.00 | 0.00 | 0.00 | 70 | 1005.1 |
| 20260505200626 | 82 | 196 | 7.8 | 15.6 | 0.00 | 0.00 | 0.00 | 71 | 1005.3 |
| 20260505195626 | 83 | 121 | 2.6 | 13.9 | 0.00 | 0.00 | 0.00 | 72 | 1005.3 |
| 20260505192626 | 82 | 175 | 8.7 | 12.2 | 0.00 | 0.00 | 0.00 | 71 | 1005.6 |
| 20260505191626 | 82 | 205 | 4.3 | 14.8 | 0.00 | 0.00 | 0.00 | 70 | 1006.0 |
| 20260505185626 | 82 | 188 | 7.0 | 13.9 | 0.00 | 0.00 | 0.00 | 72 | 1006.0 |